Weather Roundup
Issued by NWS Springfield, MO

Home | Current Version | Previous Version | Text Only | Print | Product List | Glossary On
Versions: 1 2 3 4 5 6 7 8 9 10 11 12 13 14 15 16 17 18 19 20 21 22 23 24 25 26 27 28 29 30 31 32 33 34 35 36 37 38 39 40 41 42 43 44 45 46 47 48 49 50
000
NZUS99 KSGF 281557
HRRSGF

HOURLY WEATHER
NATIONAL WEATHER SERVICE SPRINGFIELD MO
1100 AM CDT SAT MAY 28 2016

......SGF CWA......

CITY           SKY/WX    TMP DP  RH WIND       PRES   REMARKS
SPRINGFIELD    MOSUNNY   75  63  66 SW15      29.93R
JOPLIN         PTSUNNY   73  63  70 SW15G28   29.92R
WEST PLAINS    MOSUNNY   75  63  66 S8        29.98R
ROLLA          MOSUNNY   75  66  73 S13G18    29.92R

......SURROUNDING SGF CWA......

CITY           SKY/WX    TMP DP  RH WIND       PRES   REMARKS
CHANUTE        MOSUNNY   70  61  73 SW14      29.90R
PARSONS        PTSUNNY   71  62  73 SW10      29.92R
COFFEYVILLE    MOSUNNY   73  62  68 SW10      29.91R
EMPORIA        MOSUNNY   68  59  73 W9        29.89R
HARRISON AR    SUNNY     77  64  64 W5        29.97R

......KANSAS AND MISSOURI......

CITY           SKY/WX    TMP DP  RH WIND       PRES   REMARKS
KANSAS CTY INT PTSUNNY   67  61  81 W10       29.84R
SEDALIA        MOSUNNY   75  63  66 SW18      29.88R
ST JOSEPH      CLOUDY    66  60  81 SW9       29.82R
ST LOUIS       PTSUNNY   79  65  62 S10G20    29.93S
WICHITA        MOSUNNY   71  59  65 NW9       29.91R
TOPEKA         MOSUNNY   69  59  70 W10       29.84R
OLATHE         CLOUDY    67  59  75 SW10      29.86R

......TENNESSEE......

CITY           SKY/WX    TMP DP  RH WIND       PRES   REMARKS
MEMPHIS        NOT AVBL
NASHVILLE      CLOUDY    82  63  52 S14       30.10S

......ARKANSAS.......

CITY           SKY/WX    TMP DP  RH WIND       PRES   REMARKS
FAYETTEVILLE   PTSUNNY   72  65  78 SW9       29.98R
FT SMITH       CLOUDY    74  62  66 W8        29.97R
LITTLE ROCK    PTSUNNY   78  65  63 S7        29.98R

......OKLAHOMA.......

CITY           SKY/WX    TMP DP  RH WIND       PRES   REMARKS
TULSA          PTSUNNY   74  63  68 S10       29.92R
PONCA CITY     SUNNY     72  59  63 SW8       29.93R
MCALESTER      CLOUDY    74  64  71 SW9       29.98R
OKLAHOMA CITY  MOSUNNY   73  62  68 VRB3      29.95S

......IOWA............

CITY           SKY/WX    TMP DP  RH WIND       PRES   REMARKS
DES MOINES     NOT AVBL
QUAD CITIES    MOSUNNY   78  64  61 S12G24    29.84S

......ILLINOIS........

CITY           SKY/WX    TMP DP  RH WIND       PRES   REMARKS
QUINCY         NOT AVBL
CHICAGO        CLOUDY    75  65  70 S20G26    29.91R



USA.gov is the U.S. government's official web portal to all federal, state and local government web resources and services.